Location: Waldport
(44.4270°N, 124.0680°W)
Time: 00:28:10
(UTC-08:00)

Daily predictions for brighter satellites

Satellite Brightness Start Highest point End
(mag) Time Altitude Azimuth Time Altitude Azimuth Time Altitude Azimuth
SL-16 R/B 4.2 03:47:25 24° E 03:47:25 24° E 03:50:46 10° NE
CENTAUR R/B 3.5 04:00:01 42° ENE 04:00:01 42° ENE 04:04:51 10° NE
Cosmos 2237 Rocket 4.2 04:20:16 19° NNE 04:20:16 19° NNE 04:21:50 10° NNE
ADEOS II 4.3 04:25:32 10° NNE 04:26:31 16° NNE 04:26:31 16° NNE
Cosmos 2369 Rocket 4.3 04:39:34 14° N 04:42:50 22° NE 04:47:12 10° E
Lacrosse 5 rocket 3.9 04:50:50 14° NNE 04:50:50 14° NNE 04:51:36 10° NNE
Cosmos 2219 Rocket 4.2 04:57:23 15° N 04:57:23 15° N 04:58:32 10° N
ATLAS 5 CENTAUR R/B 4.5 04:56:40 11° N 04:56:40 11° N 04:57:17 10° N
Cosmos 2181 Rocket 4.2 04:56:55 57° SW 04:56:55 57° SW 05:02:03 10° S
USA 32 4.3 04:57:58 26° N 05:00:53 68° E 05:06:06 10° SSE
Cosmos 1536 Rocket 4.0 05:02:00 59° ENE 05:02:15 60° E 05:06:36 10° SSE
Cosmos 1371 Rocket 4.4 05:01:36 39° N 05:03:25 61° ENE 05:08:37 10° SSE
Cosmos 2297 4.5 05:06:46 37° SSW 05:06:46 37° SSW 05:10:23 10° S
Cosmos 2333 Rocket 3.9 05:09:28 19° N 05:09:28 19° N 05:11:21 10° N
Tiangong 2 3.3 05:10:59 26° ESE 05:10:59 26° ESE 05:12:34 10° E
Celestis-02/Orion 38 4.5 05:09:26 10° SSE 05:14:36 73° WSW 05:15:14 65° WNW
Meteor 1-14 Rocket 4.3 05:17:46 52° NW 05:17:46 52° NW 05:22:24 10° N
Okean 1 3.4 05:17:54 76° SE 05:17:54 76° SE 05:21:43 10° S
SJ-6F 4.5 05:15:44 10° NNE 05:19:49 76° ESE 05:23:53 10° S
Cosmos 921 Rocket 2.9 05:21:49 76° WSW 05:21:49 76° WSW 05:26:15 10° S
Okean 1 Rocket 4.4 05:19:26 10° SSE 05:23:32 39° E 05:27:37 10° NNE
USA 215 3.2 05:20:06 10° NE 05:26:41 85° SE 05:31:32 19° SW
Cosmos 1680 Rocket 3.5 05:26:55 55° WNW 05:27:09 56° WNW 05:32:18 10° NNE
COSMO-SKYMED 1 2.5 05:25:16 10° SSE 05:29:36 87° E 05:31:32 33° NNW
SL-16 R/B 2.3 05:29:23 48° WNW 05:29:57 49° WNW 05:35:28 10° NNE
Cosmos 1943 Rocket 4.1 05:28:12 10° N 05:32:37 24° NE 05:37:00 10° ESE
Cosmos 1346 Rocket 2.6 05:34:15 72° NW 05:34:30 77° W 05:38:25 10° S
Meteor 1-25 Rocket 4.2 05:30:17 10° SSW 05:36:03 61° WNW 05:41:49 10° N
Cosmos 1238 Rocket 3.6 05:36:21 46° WNW 05:36:48 48° W 05:42:09 10° SSW
Cosmos 1633 3.4 05:37:56 10° S 05:41:30 52° E 05:45:03 10° NNE
USA 129 4.3 05:40:40 10° SE 05:42:10 22° E 05:42:10 22° E
Meteor 1-13 Rocket 4.4 05:37:38 10° N 05:43:38 85° E 05:49:36 10° S
PSLV R/B 4.1 05:43:57 37° SSW 05:44:10 38° SSW 05:47:21 10° ESE
Cosmos 2112 Rocket 4.2 05:44:32 31° WSW 05:46:28 44° WNW 05:51:27 10° N
NOAA 6 3.9 05:42:11 10° N 05:47:15 62° WNW 05:52:18 10° SSW
Nadezhda 3 Rocket 4.1 05:41:04 10° N 05:47:27 81° E 05:53:50 10° S
CENTAUR R/B 3.2 05:47:14 31° WNW 05:49:12 37° NW 05:55:45 10° NNE
Meteor 1-28 Rocket 3.2 05:47:03 10° SSE 05:50:49 79° ENE 05:54:06 14° N
CZ-4 R/B 3.5 05:48:24 10° NE 05:51:51 28° E 05:55:14 10° SSE
Cosmos 1300 Rocket 3.4 05:49:02 10° SSW 05:53:28 78° W 05:57:54 10° N
CZ-4C R/B 4.5 05:50:10 11° NNW 05:53:29 15° N 05:57:16 10° NE
Lacrosse 5 2.4 05:55:56 10° SSW 06:00:57 60° SE 06:05:59 10° NE
Cosmos 2237 Rocket 3.8 06:02:09 15° NNW 06:02:09 15° NNW 06:04:36 10° N
Lacrosse 4 Rocket 3.7 06:00:13 10° N 06:03:09 18° NE 06:06:02 10° E
Cosmos 1536 3.1 06:00:32 10° S 06:04:29 69° E 06:08:29 10° NNE
Cosmos 1340 4.4 06:02:52 10° N 06:06:20 32° ENE 06:09:46 10° SE
Cosmos 2341 Rocket 4.1 06:02:33 10° S 06:08:51 84° E 06:15:09 10° N
Cosmos 2074 Rocket 4.4 06:03:04 10° SW 06:08:54 39° WNW 06:14:46 10° N
ADEOS II 4.0 06:06:40 10° NNW 06:07:27 12° NNW 06:07:27 12° NNW
Cosmos 192 4.2 06:05:37 10° SSW 06:10:31 75° WNW 06:15:27 10° NNE
Cosmos 44 Rocket 3.5 06:06:44 10° SSW 06:11:55 83° ESE 06:17:03 10° NE
Meteor 2-4 Rocket 3.7 06:06:43 10° N 06:12:14 87° E 06:17:52 10° S
CSL-04 DEB 4.4 06:10:38 10° N 06:14:36 56° WNW 06:18:37 10° SSW
CSL-04 Rocket 3.7 06:10:04 10° NNE 06:15:39 80° WNW 06:21:09 10° SSW
CSL-04 Debris 4.2 06:11:39 10° NNE 06:17:09 89° W 06:22:38 10° SSW
SKYMED 2 4.4 06:14:04 10° SSW 06:17:51 29° W 06:20:10 18° NW
SL-24 DEB 4.4 06:21:21 10° S 06:26:02 57° W 06:30:47 10° NNW
Cosmos 2056 Rocket 4.1 06:23:16 14° NW 06:26:59 34° W 06:31:32 10° SSW
Cosmos 2369 Rocket 2.2 06:21:44 10° NNW 06:27:27 71° WSW 06:33:06 10° SSE
Cosmos 1603 4.0 06:22:08 10° SW 06:27:35 45° WNW 06:33:02 10° NNE
SPOT 3 Rocket 4.5 06:22:51 10° NNE 06:27:54 53° E 06:32:54 10° S
Lacrosse 5 rocket 3.4 06:26:34 12° NNW 06:28:32 15° N 06:31:09 10° NE
Helios 1B rocket 2.8 06:24:48 10° SSE 06:28:54 68° ENE 06:33:03 10° N
SL-23 DEB 3.7 06:28:21 18° NW 06:30:29 57° NNE 06:34:09 10° ESE
Cosmos 1420 Rocket 4.4 06:25:26 10° NNW 06:30:42 66° ENE 06:35:52 10° SSE
SOZ 4.3 06:32:58 22° W 06:33:57 38° NNW 06:35:52 10° NE
Meteor 1-29 3.4 06:33:33 10° SSE 06:36:53 60° ENE 06:40:13 10° N
Cosmos 2154 Rocket 4.3 06:33:25 10° SSW 06:39:19 45° WNW 06:45:15 10° N
USA 229 DEB 4.3 06:34:29 10° SSW 06:41:15 65° ESE 06:48:08 10° NE
USA 229 4.3 06:34:36 10° SSW 06:41:22 64° ESE 06:48:14 10° NE
Ariane Rocket 3.5 06:38:02 10° N 06:42:38 36° WNW 06:47:13 10° SW
ATLAS 5 CENTAUR R/B 4.3 06:40:18 10° N 06:42:57 13° NNE 06:45:41 10° NE
Tiangong 2 1.4 06:43:03 12° W 06:45:55 59° S 06:49:01 10° ESE
Cosmos 1975 4.4 06:43:22 10° SSE 06:47:12 40° E 06:51:03 10° NNE
YAOGAN 1 2.7 06:42:54 10° NNE 06:47:16 82° ESE 06:51:36 10° SSW
IDEFIX/ARIANE 42P 2.7 06:42:30 10° NNE 06:47:44 83° ESE 06:52:56 10° SSW
Cosmos 1025 Rocket 3.6 06:49:08 10° NNW 06:53:10 37° W 06:57:11 10° SSW
AQUARIUS 4.1 06:48:50 10° N 06:53:21 81° WNW 06:57:51 10° SSW
Cosmos 1943 3.2 06:48:00 10° SW 06:53:33 59° WNW 06:59:09 10° NNE
Abrixas rocket 2.4 06:52:09 10° WSW 06:55:30 79° SSE 06:58:52 10° ENE
Okean 1 Rocket 4.3 06:58:21 10° WSW 07:01:36 20° WNW 07:04:51 10° NNW
Cosmos 1544 Rocket 3.6 07:01:52 10° SSW 07:06:10 62° W 07:10:31 10° N
